Date,TemperatureHighF,TemperatureAvgF,TemperatureLowF,DewpointHighF,DewpointAvgF,DewpointLowF,HumidityHigh,HumidityAvg,HumidityLow,PressureMaxIn,PressureMinIn,WindSpeedMaxMPH,WindSpeedAvgMPH,GustSpeedMaxMPH,PrecipitationSumIn
2013-1-11,25,25,25,25,25,25,100,100,100,0.00,40.00,0,0,0,0.00
2013-1-12,24,23,22,24,23,22,100,100,100,0.00,40.00,0,0,0,0.00
2013-1-13,30,27,25,30,27,25,100,100,99,0.00,40.00,0,0,0,0.00
2013-1-16,34,33,32,34,33,32,100,100,100,0.00,40.00,0,0,4,0.00
2013-1-17,37,35,32,37,35,32,100,100,100,0.00,40.00,1,1,5,0.00
2013-1-18,41,36,33,31,28,22,79,73,68,0.00,40.00,1,0,4,0.00
2013-1-19,40,37,33,31,29,22,79,73,63,0.00,40.00,0,0,4,0.11
2013-1-20,42,38,35,29,27,25,73,63,58,0.00,40.00,0,0,3,0.09
2013-1-21,41,37,35,29,26,24,70,64,61,0.00,40.00,1,0,4,0.03
2013-1-22,45,40,34,29,26,23,67,58,49,0.00,40.00,1,0,3,0.11
2013-1-23,40,39,38,27,26,25,59,58,57,0.00,40.00,0,0,7,0.02
2013-1-24,37,34,32,36,34,32,100,100,98,0.00,40.00,0,0,7,0.05
2013-1-25,41,36,32,41,36,32,100,100,99,0.00,40.00,0,0,6,0.01
2013-1-26,34,32,32,34,32,32,100,100,100,0.00,40.00,0,0,6,0.01
2013-2-1,41,36,33,41,36,32,100,100,100,0.00,40.00,0,0,4,0.00
2013-2-2,42,34,32,38,31,-100,100,95,86,0.00,40.00,1,-22,5,0.00
2013-2-3,40,36,33,40,36,33,100,100,99,0.00,40.00,0,0,6,0.23
2013-2-4,41,36,34,41,36,34,100,100,100,0.00,40.00,0,0,4,0.24
2013-2-6,39,35,33,39,35,33,100,100,98,0.00,40.00,0,0,5,0.17
2013-2-7,40,34,30,38,34,29,100,98,90,0.00,40.00,0,0,5,0.09
2013-2-8,39,32,28,38,32,28,100,99,93,0.00,40.00,0,0,4,0.01
2013-2-9,39,34,32,37,34,31,100,98,88,0.00,40.00,0,0,3,0.01
2013-2-10,38,34,31,37,34,31,100,99,94,0.00,40.00,0,0,5,0.01
2013-2-11,39,34,31,39,34,31,100,100,99,0.00,40.00,0,0,6,0.05
2013-2-12,40,36,33,40,36,33,100,100,100,0.00,40.00,3,0,15,0.20
2013-2-13,38,38,38,38,38,38,100,100,100,0.00,40.00,3,3,11,0.00
2013-2-14,45,39,34,42,38,34,100,98,89,0.00,40.00,0,0,4,0.00
2013-2-15,46,37,32,44,37,32,100,99,92,0.00,40.00,0,0,3,0.01
2013-2-16,41,36,32,41,36,32,100,100,100,0.00,40.00,5,1,20,1.09
2013-2-17,38,33,32,38,33,31,100,100,99,0.00,40.00,1,0,7,0.36
2013-2-18,42,33,29,38,33,29,100,98,79,0.00,40.00,0,0,3,0.08
2013-2-19,43,33,29,40,32,29,100,99,87,0.00,40.00,1,0,5,0.12
2013-2-20,37,33,30,37,33,30,100,100,100,0.00,40.00,0,0,2,0.02
2013-2-21,35,32,32,35,28,-100,100,96,100,0.00,40.00,0,0,6,0.01
2013-2-22,38,32,32,38,26,-100,100,94,100,0.00,40.00,7,3,28,0.00
2013-2-23,39,35,32,39,35,32,100,100,100,0.00,40.00,3,1,17,0.04
2013-2-24,36,34,33,36,34,33,100,100,100,0.00,40.00,0,0,12,0.05
2013-2-26,44,37,34,38,36,32,100,98,80,0.00,40.00,0,0,4,0.03
2013-2-27,44,35,32,39,34,32,100,97,82,0.00,40.00,0,0,7,0.47
2013-2-28,44,34,32,44,34,32,100,100,100,0.00,40.00,4,0,17,1.65
2013-3-1,46,43,39,46,43,39,100,100,100,0.00,40.00,5,2,22,2.12
2013-3-2,41,41,41,41,41,41,100,100,100,0.00,40.00,0,0,4,0.00
2013-3-3,39,34,28,36,33,28,100,96,86,0.00,40.00,0,0,8,0.05
2013-3-4,44,33,27,39,32,27,100,96,74,0.00,40.00,1,0,11,0.24
2013-3-5,49,40,34,48,36,27,100,85,63,0.00,40.00,1,0,11,0.13
2013-3-6,49,44,42,49,43,38,100,97,81,0.00,40.00,0,0,10,0.29
2013-3-7,51,45,42,50,45,42,100,99,89,0.00,40.00,0,0,4,0.25
2013-3-8,55,48,41,49,44,41,100,89,68,0.00,40.00,1,0,9,0.01
2013-3-9,62,49,42,48,43,41,100,84,50,0.00,40.00,2,0,11,0.01
2013-3-10,50,46,42,48,45,42,100,99,85,0.00,40.00,0,0,4,0.02
2013-3-11,62,45,41,47,43,38,100,94,46,0.00,40.00,0,0,6,0.08
2013-5-16,-200,0,200,-100,-100,-100,90,87,82,0.00,40.00,1,0,3,0.00
2013-5-20,64,54,49,48,47,44,93,78,48,0.00,40.00,3,2,9,0.00
2013-5-21,49,44,40,47,43,39,100,98,92,0.00,40.00,3,0,7,1.13
2013-5-22,47,42,39,44,41,39,100,97,87,0.00,40.00,4,1,10,0.54
2013-5-23,53,43,35,46,41,35,100,92,74,0.00,40.00,4,1,10,0.23
2013-5-24,53,46,38,44,41,38,100,87,63,0.00,40.00,5,1,12,0.01
2013-5-25,57,47,41,45,43,40,100,88,60,0.00,40.00,3,1,9,0.08
2013-5-26,54,47,41,52,46,40,100,97,90,0.00,40.00,2,0,5,0.16
2013-5-27,53,49,46,51,48,46,100,97,89,0.00,40.00,1,0,7,0.43
2013-5-28,51,48,44,50,47,44,100,97,85,0.00,40.00,3,1,11,0.47
2013-5-29,49,45,42,48,45,42,100,99,95,0.00,40.00,3,1,11,0.46
2013-5-30,51,45,41,47,44,41,100,97,85,0.00,40.00,2,0,9,0.81
2013-5-31,59,49,42,49,45,42,100,88,60,0.00,40.00,4,1,9,0.33
2013-6-1,64,52,42,50,46,42,100,83,54,0.00,40.00,3,1,12,0.02
2013-6-2,62,52,44,49,46,44,100,82,56,0.00,40.00,5,2,16,0.01
2013-6-3,68,55,43,51,47,43,99,77,51,0.00,40.00,5,2,14,0.00
2013-6-4,78,61,46,53,48,45,99,69,33,0.00,40.00,4,1,12,0.00
2013-6-5,75,61,49,55,49,44,91,67,40,0.00,40.00,4,2,12,0.00
2013-6-6,77,62,50,53,49,38,97,66,36,0.00,40.00,5,2,17,0.00
2013-6-7,62,54,46,48,42,35,96,65,52,0.00,40.00,4,1,12,0.00
2013-6-8,64,53,43,49,46,42,99,79,50,0.00,40.00,4,2,16,0.00
2013-6-9,63,51,43,46,43,41,100,77,45,0.00,40.00,5,2,12,0.00
2013-6-10,66,54,40,47,44,39,98,72,50,0.00,40.00,5,2,13,0.00
2013-6-11,57,48,44,45,43,42,99,84,61,0.00,40.00,3,1,9,0.07
2013-6-12,58,49,43,48,45,40,99,85,53,0.00,40.00,3,1,14,0.05
2013-6-13,55,49,44,50,46,44,100,90,74,0.00,40.00,3,1,9,0.11
2013-6-14,63,51,46,50,47,45,100,89,57,0.00,40.00,3,1,9,0.07
2013-6-15,80,60,44,52,45,38,100,67,28,0.00,40.00,5,1,14,0.01
2013-6-16,75,60,50,55,50,42,96,69,48,0.00,40.00,6,2,16,0.00
2013-6-17,72,58,49,52,48,44,97,74,41,0.00,40.00,4,2,14,0.01
2013-6-18,65,55,49,51,48,42,100,80,51,0.00,40.00,4,1,14,0.06
2013-6-19,52,49,47,50,47,45,99,93,85,0.00,40.00,4,2,14,0.27
2013-6-20,48,46,46,47,46,44,99,97,92,0.00,40.00,6,4,21,1.79
2013-6-22,74,64,49,55,51,49,99,65,43,0.00,40.00,3,1,9,0.00
2013-6-23,68,59,52,59,54,49,100,86,65,0.00,40.00,2,1,9,0.03
2013-6-24,58,55,51,56,53,50,100,96,83,0.00,40.00,2,0,14,0.49
2013-6-25,61,53,47,56,52,47,100,95,79,0.00,40.00,4,0,16,0.43
2013-6-26,61,54,48,57,53,48,100,97,87,0.00,40.00,2,0,7,0.55
2013-6-27,59,55,51,58,55,51,100,99,96,0.00,40.00,1,0,4,0.37
2013-6-28,81,66,54,65,59,54,100,82,50,0.00,40.00,3,1,9,0.03
2013-6-29,83,70,60,64,61,58,97,76,52,0.00,40.00,4,1,12,0.01
2013-6-30,94,74,59,64,59,53,99,67,26,0.00,40.00,2,1,7,0.00
2013-7-1,89,74,64,65,60,54,86,64,39,0.00,40.00,4,1,14,0.00
2013-7-2,82,69,56,62,58,49,99,72,45,0.00,40.00,5,2,13,0.00
2013-7-3,76,63,52,52,48,42,87,61,36,0.00,40.00,5,2,14,0.00
2013-7-4,66,56,48,53,46,37,90,69,56,0.00,40.00,6,3,17,0.00
2013-7-5,68,56,46,55,50,45,98,82,62,0.00,40.00,4,2,13,0.00
2013-7-6,77,60,49,57,52,48,98,79,50,0.00,40.00,5,2,11,0.00
2013-7-7,76,64,54,55,53,50,90,69,46,0.00,40.00,5,2,14,0.00
2013-7-8,76,61,51,58,53,49,93,77,49,0.00,40.00,5,1,12,0.00
2013-7-9,85,68,54,58,54,52,93,67,36,0.00,40.00,3,1,12,0.00
2013-7-10,70,60,48,54,48,-100,89,66,48,0.00,40.00,6,2,15,0.00
2013-7-11,66,53,45,47,44,42,96,74,44,0.00,40.00,4,2,11,0.01
2013-7-12,68,52,43,51,46,41,95,81,48,0.00,40.00,5,1,15,0.01
2013-7-13,74,58,44,50,46,43,98,69,36,0.00,40.00,4,2,11,0.00
2013-7-14,77,62,48,50,43,36,85,55,28,0.00,40.00,4,2,14,0.00
2013-7-15,83,64,49,53,42,34,72,48,21,0.00,40.00,3,1,10,0.00
2013-7-16,89,78,65,55,48,41,70,39,19,0.00,40.00,3,1,9,0.00
2013-7-17,70,63,57,61,56,52,99,79,65,0.00,40.00,5,2,12,0.09
2013-7-18,78,66,56,60,57,54,96,75,54,0.00,40.00,3,1,10,0.01
2013-7-19,82,63,54,60,56,53,99,83,47,0.00,40.00,4,1,11,0.00
2013-7-20,79,61,54,59,54,46,95,79,50,0.00,40.00,5,2,12,0.00
2013-7-21,77,61,52,56,50,41,90,69,49,0.00,40.00,5,2,14,0.00
2013-7-22,79,63,54,59,56,52,95,79,50,0.00,40.00,4,2,12,0.00
2013-7-23,84,66,55,59,54,47,98,70,35,0.00,40.00,5,1,12,0.00
2013-7-24,84,68,56,55,51,47,78,58,32,0.00,40.00,5,2,12,0.00
2013-7-25,82,66,55,52,47,42,77,54,26,0.00,40.00,6,2,14,0.00
2013-7-26,81,65,54,50,42,36,57,45,29,0.00,40.00,4,2,14,0.00
2013-7-27,74,61,50,52,45,36,81,56,43,0.00,40.00,5,2,14,0.00
2013-7-28,72,60,49,54,48,41,89,67,52,0.00,40.00,4,2,14,0.00
2013-7-29,72,60,50,57,53,49,96,79,57,0.00,40.00,4,2,12,0.00
2013-7-30,78,63,52,59,55,51,97,78,52,0.00,40.00,3,1,10,0.00
2013-7-31,58,56,55,56,55,54,97,95,92,0.00,40.00,2,1,3,0.00
2013-8-2,56,54,52,54,53,52,99,96,92,0.00,40.00,2,1,7,0.67
2013-8-3,73,60,51,60,55,51,99,85,61,0.00,40.00,3,1,11,0.04
2013-8-4,82,66,55,62,58,54,99,79,43,0.00,40.00,4,1,11,0.00
2013-8-5,83,66,56,61,56,49,97,75,36,0.00,40.00,5,2,13,0.00
2013-8-6,83,67,55,56,51,46,83,60,34,0.00,40.00,6,2,13,0.00
2013-8-7,83,68,57,55,50,46,75,56,34,0.00,40.00,5,2,15,0.00
2013-8-8,80,66,54,60,55,51,92,70,45,0.00,40.00,5,2,13,0.00
2013-8-9,85,68,57,60,57,53,89,71,42,0.00,40.00,4,2,13,0.00
2013-8-10,79,67,60,64,60,55,98,80,58,0.00,40.00,4,2,14,0.23
2013-8-11,71,61,57,61,59,56,99,93,68,0.00,40.00,4,1,12,0.17
2013-8-12,74,63,56,59,57,55,98,83,58,0.00,40.00,4,1,13,0.01
2013-8-13,79,64,56,58,54,-100,96,76,48,0.00,40.00,4,1,11,0.00
2013-8-14,81,64,56,60,53,-100,97,76,40,0.00,40.00,4,1,10,0.04
2013-8-15,66,57,57,61,47,-100,99,91,81,0.00,40.00,3,1,8,0.40
2013-8-16,79,64,54,62,58,54,99,82,48,0.00,40.00,3,1,8,0.01
2013-8-17,72,62,56,58,54,-100,97,77,57,0.00,40.00,3,1,10,0.01
2013-8-18,71,61,56,57,55,54,97,82,54,0.00,40.00,4,1,13,0.00
2013-8-19,69,56,52,58,46,-100,97,83,63,0.00,40.00,4,1,10,0.02
2013-8-20,75,58,47,53,48,-100,98,76,43,0.00,40.00,4,1,10,0.01
2013-8-21,83,64,50,57,52,49,96,71,35,0.00,40.00,3,1,10,0.00
2013-8-22,86,68,58,58,53,48,77,62,31,0.00,40.00,3,2,11,0.00
2013-8-23,71,63,58,57,54,52,84,72,55,0.00,40.00,4,2,13,0.00
2013-8-24,67,56,50,57,52,-100,98,89,64,0.00,40.00,2,1,8,0.06
2013-8-25,68,56,49,56,52,48,98,87,57,0.00,40.00,3,1,9,0.02
2013-8-26,72,58,51,56,53,50,99,87,54,0.00,40.00,4,1,13,0.20
2013-8-27,71,57,54,59,55,54,99,95,63,0.00,40.00,2,1,6,0.18
2013-8-28,75,66,60,62,60,58,98,82,61,0.00,40.00,2,1,6,0.26
2013-8-29,65,60,57,62,58,56,99,96,83,0.00,40.00,4,1,13,1.25
2013-8-30,72,60,52,57,53,51,98,80,51,0.00,40.00,4,2,13,0.50
2013-8-31,79,61,49,57,51,-100,98,76,40,0.00,40.00,3,1,5,0.01
2013-9-1,79,65,57,61,56,50,91,72,51,0.00,40.00,4,2,15,0.01
2013-9-2,77,64,56,59,56,53,93,77,50,0.00,40.00,4,2,12,0.00
2013-9-3,72,60,55,63,57,54,99,91,68,0.00,40.00,3,1,12,0.37
2013-9-4,73,60,54,61,57,54,99,90,65,0.00,40.00,3,1,9,0.05
2013-9-5,73,60,56,65,59,55,99,95,75,0.00,40.00,2,0,8,0.97
2013-9-6,68,59,55,61,58,55,99,94,78,0.00,40.00,5,1,13,2.48
2013-9-7,68,59,55,59,55,-100,99,90,72,0.00,40.00,4,1,10,0.28
2013-9-8,74,61,53,61,56,53,99,86,60,0.00,40.00,4,1,10,0.02
2013-9-9,76,62,54,61,57,53,99,85,58,0.00,40.00,4,1,10,0.01
2013-9-10,81,65,54,63,58,54,99,80,51,0.00,40.00,2,1,6,0.01
2013-9-11,87,70,61,61,56,51,79,63,35,0.00,40.00,3,1,4,0.01
2013-9-12,86,70,61,62,56,49,92,62,41,0.00,40.00,3,2,8,0.00
2013-9-13,75,63,56,62,58,54,99,84,63,0.00,40.00,3,1,10,0.00
2013-9-14,79,64,54,64,57,-100,99,83,58,0.00,40.00,2,0,5,0.00
2013-9-15,75,64,56,59,56,51,99,77,57,0.00,40.00,3,2,13,0.40
2013-9-16,57,54,49,56,53,48,99,97,91,0.00,40.00,3,1,11,0.72
2013-9-17,57,51,47,51,49,47,99,92,75,0.00,40.00,3,1,12,0.01
2013-9-18,49,48,45,48,47,44,98,96,92,0.00,40.00,4,2,12,0.34
2013-9-19,70,53,43,53,46,43,99,80,43,0.00,40.00,3,1,7,0.01
2013-9-20,70,58,51,52,46,40,98,66,40,0.00,40.00,3,2,18,0.12
2013-9-21,60,52,49,53,49,-100,99,93,72,0.00,40.00,3,1,6,0.67
2013-9-22,51,49,47,49,48,46,98,94,86,0.00,40.00,4,2,13,1.44
2013-9-23,49,47,43,48,46,42,99,96,94,0.00,40.00,5,2,16,0.91
2013-9-24,50,46,43,47,44,42,99,96,86,0.00,40.00,2,0,8,0.12
2013-9-25,57,47,39,48,44,38,99,90,69,0.00,40.00,3,1,11,0.01
2013-9-26,59,45,38,46,41,37,99,89,62,0.00,40.00,5,2,14,0.01
2013-9-27,47,44,41,46,43,40,99,98,91,0.00,40.00,2,1,13,0.52
2013-9-28,54,47,44,52,45,-100,99,94,89,0.00,40.00,8,3,29,3.41
2013-9-29,49,45,44,48,44,40,98,94,83,0.00,40.00,8,3,28,3.70
2013-9-30,48,44,41,46,42,40,98,94,83,0.00,40.00,8,3,28,1.23
2013-10-1,45,42,40,42,41,39,98,95,88,0.00,40.00,2,1,7,0.81
2013-10-2,45,42,36,44,41,35,99,97,93,0.00,40.00,2,0,6,0.87
2013-10-3,54,43,35,47,41,35,99,93,78,0.00,40.00,2,1,8,0.01
2013-10-4,58,45,36,46,40,35,99,88,51,0.00,40.00,3,1,9,0.01
2013-10-5,60,49,43,50,43,37,91,80,64,0.00,40.00,3,2,4,0.01
2013-10-6,71,54,47,47,42,31,92,69,25,0.00,40.00,3,2,12,0.00
2013-10-7,49,46,44,47,44,43,99,95,81,0.00,40.00,4,2,15,1.19
2013-10-8,52,43,36,45,41,35,98,93,76,0.00,40.00,6,2,21,1.11
2013-10-9,52,41,34,43,38,34,98,91,70,0.00,40.00,2,1,7,0.01
2013-10-10,49,43,38,44,40,36,98,88,74,0.00,40.00,2,1,7,0.00
2013-10-11,50,42,36,44,40,35,98,93,77,0.00,40.00,2,1,8,0.01
2013-10-12,52,44,39,46,40,-100,98,91,70,0.00,40.00,3,0,9,0.01
2013-10-13,56,42,36,43,39,35,98,90,62,0.00,40.00,3,2,8,0.01
2013-10-14,55,43,36,45,40,35,98,90,68,0.00,40.00,2,1,6,0.01
2013-10-15,57,46,41,46,41,38,93,84,60,0.00,40.00,3,2,8,0.01
2013-10-16,58,46,41,47,43,39,96,88,66,0.00,40.00,3,2,5,0.00
2013-10-17,56,46,40,46,41,37,95,84,66,0.00,40.00,3,1,4,0.00
2013-10-18,59,47,42,48,41,36,88,79,62,0.00,40.00,3,2,4,0.00
2013-10-19,58,48,44,47,41,-100,93,82,68,0.00,40.00,2,2,4,0.00
2013-10-20,60,48,43,50,44,41,95,86,67,0.00,40.00,2,1,4,0.00
2013-10-21,64,53,48,51,46,43,87,77,62,0.00,40.00,3,2,5,0.00
2013-10-22,64,54,49,50,44,41,81,70,57,0.00,40.00,3,2,4,0.00
2013-10-23,63,54,49,46,41,37,67,62,53,0.00,40.00,3,2,4,0.00
2013-10-24,61,52,48,45,40,37,72,64,53,0.00,40.00,3,2,4,0.00
2013-10-25,56,46,42,46,41,38,98,84,68,0.00,40.00,2,1,7,0.00
2013-10-26,53,42,37,45,39,-100,98,93,73,0.00,40.00,2,0,5,0.00
2013-10-27,51,44,41,46,41,35,99,92,67,0.00,40.00,3,1,8,0.12
2013-10-28,52,43,37,35,30,26,70,59,44,0.00,40.00,3,2,12,0.01
2013-10-29,50,38,34,33,30,27,80,71,47,0.00,40.00,3,2,8,0.00
2013-10-30,50,41,35,41,35,30,98,79,58,0.00,40.00,3,1,7,0.04
2013-10-31,45,43,40,44,42,39,98,98,96,0.00,40.00,1,0,7,0.48
2013-11-1,49,45,43,48,44,42,99,98,95,0.00,40.00,2,0,10,0.04
2013-11-2,45,40,33,44,38,-100,99,96,93,0.00,40.00,9,2,30,2.44
2013-11-3,38,33,29,35,32,28,98,97,88,0.00,40.00,3,1,8,1.14
2013-11-4,37,31,27,34,30,26,98,95,86,0.00,40.00,2,1,3,0.09
2013-11-5,40,36,32,39,35,32,98,98,97,0.00,40.00,2,1,10,0.96
2013-11-6,42,38,35,40,37,34,99,97,92,0.00,40.00,2,0,9,0.10
2013-11-7,43,40,39,42,40,38,99,97,93,0.00,40.00,6,2,19,3.17
2013-11-8,42,39,37,40,38,36,99,94,87,0.00,40.00,5,2,19,0.45
2013-11-9,43,37,33,42,35,-100,99,96,93,0.00,40.00,2,0,3,0.06
2013-11-10,42,40,37,41,39,37,99,98,95,0.00,40.00,2,1,9,0.15
2013-11-11,51,44,40,46,42,39,98,91,79,0.00,40.00,2,1,10,0.01
2013-11-12,48,47,45,47,44,39,98,91,74,0.00,40.00,5,2,17,0.23
2013-11-13,47,44,40,45,43,39,99,97,89,0.00,40.00,4,1,12,0.34
2013-11-14,43,39,33,42,39,32,99,98,95,0.00,40.00,3,1,7,0.13
2013-11-15,36,35,33,36,34,32,99,97,91,0.00,40.00,10,2,23,0.78
2013-11-16,35,33,32,34,31,-100,98,94,90,0.00,40.00,5,2,23,1.11
2013-11-17,40,36,32,38,35,31,98,97,94,0.00,40.00,5,2,15,1.76
2013-11-18,44,40,37,43,39,36,99,98,95,0.00,40.00,4,1,18,2.43
2013-11-19,46,35,27,45,33,21,98,92,74,0.00,40.00,6,2,23,1.86
2013-11-20,29,24,22,22,21,18,93,85,74,0.00,40.00,3,1,5,0.04
2013-11-21,30,25,21,21,18,16,89,77,62,0.00,40.00,3,1,4,0.01
2013-11-22,36,31,26,28,23,19,81,74,65,0.00,40.00,2,1,5,0.01
2013-11-23,41,37,34,32,28,-100,80,73,68,0.00,40.00,3,2,5,0.00
2013-11-24,44,39,37,33,29,27,71,66,60,0.00,40.00,3,2,4,0.00
2013-11-25,46,40,38,31,27,22,67,59,51,0.00,40.00,3,2,5,0.00
2013-11-26,44,40,36,38,28,22,90,60,52,0.00,40.00,3,2,7,0.00
2013-11-27,48,42,39,41,38,35,95,84,72,0.00,40.00,2,1,5,0.00
2013-11-28,45,42,39,36,34,31,87,73,65,0.00,40.00,3,2,4,0.00
2013-11-29,45,41,39,40,38,33,98,90,71,0.00,40.00,2,1,8,0.01
2013-11-30,42,39,38,42,37,-100,99,97,98,0.00,40.00,1,0,5,0.75
2013-12-1,45,41,33,44,40,31,99,96,89,0.00,40.00,8,3,26,2.34
2013-12-2,34,31,26,31,27,21,96,87,72,0.00,40.00,5,2,22,0.46
2013-12-3,27,24,21,21,14,10,82,65,58,0.00,40.00,2,1,10,0.01
2013-12-4,23,20,17,12,9,5,70,60,50,0.00,40.00,2,1,10,0.00
2013-12-5,26,20,15,15,12,8,82,71,61,0.00,40.00,2,0,8,0.00
2013-12-6,19,16,12,9,1,-6,66,52,43,0.00,40.00,2,1,9,0.00
2013-12-7,16,12,10,2,-5,-100,67,48,38,0.00,40.00,3,1,8,0.00
2013-12-8,18,15,10,9,6,0,78,67,60,0.00,40.00,2,1,3,0.00
2013-12-9,26,21,14,24,17,8,95,82,72,0.00,40.00,1,0,9,0.00
2013-12-10,32,28,25,29,27,24,96,94,90,0.00,40.00,1,0,6,0.00
2013-12-11,34,30,26,32,29,25,98,95,90,0.00,40.00,2,0,4,0.05
2013-12-12,37,34,32,34,32,31,98,95,82,0.00,40.00,3,2,10,0.43
2013-12-13,39,36,35,38,36,34,99,98,97,0.00,40.00,2,1,5,0.46
2013-12-14,40,38,36,39,36,-100,99,98,98,0.00,40.00,2,1,5,0.09
2013-12-15,41,40,36,41,39,35,99,99,97,0.00,40.00,4,2,12,0.34
2013-12-16,40,34,31,39,34,31,98,98,95,0.00,40.00,3,1,7,0.02
2013-12-17,41,36,31,36,33,31,98,91,78,0.00,40.00,3,1,10,0.00
2013-12-18,36,33,27,35,30,18,98,89,67,0.00,40.00,5,2,21,0.03
2013-12-19,30,26,24,20,15,8,78,62,48,0.00,40.00,2,0,7,0.02
2013-12-20,32,28,24,32,26,18,98,93,72,0.00,40.00,2,0,5,0.00
2013-12-21,36,33,32,34,31,-100,98,96,92,0.00,40.00,2,0,5,0.36
2013-12-22,39,34,32,39,34,32,99,98,96,0.00,40.00,1,0,4,1.46
2013-12-23,41,38,35,41,38,34,99,98,93,0.00,40.00,5,2,17,1.87
2013-12-24,37,34,29,35,33,29,98,97,92,0.00,40.00,3,1,13,0.17
2013-12-25,34,31,27,33,30,26,98,95,82,0.00,40.00,2,1,3,0.01
2013-12-26,40,37,34,38,35,28,98,93,79,0.00,40.00,3,1,4,0.01
2013-12-27,42,38,36,40,38,36,99,97,89,0.00,40.00,6,2,17,0.31
2013-12-28,38,35,32,37,33,-100,99,97,94,0.00,40.00,2,0,5,0.05
2013-12-29,37,34,31,36,34,31,99,98,98,0.00,40.00,2,0,4,0.11
2013-12-30,43,38,35,43,38,35,99,98,95,0.00,40.00,3,1,10,0.06
2013-12-31,38,37,35,38,36,34,99,99,98,0.00,40.00,2,1,6,0.22
2014-1-1,39,35,31,38,34,31,99,98,96,0.00,40.00,2,1,3,0.01
2014-1-2,41,38,33,41,38,32,99,98,92,0.00,40.00,6,2,22,1.34